Weather History for Mount Ida, AR

Change the Weather History Date:

Thursday, October 3, 2013

  Actual Average (KHOT) Record (KHOT)
Temperature  
Mean Temperature 76 °F -  
Max Temperature 84 °F 82 °F 97 °F (1953)
Min Temperature 70 °F 54 °F 39 °F (1975)
Cooling Degree Days 11    
Growing Degree Days 26 (Base 50)    
Moisture  
Dew Point 69 °F    
Average Humidity 79    
Maximum Humidity 97    
Minimum Humidity 58    
Precipitation  
Precipitation 0.00 in - - ()
Sea Level Pressure  
Sea Level Pressure 29.92 in    
Wind  
Wind Speed 3 mph (SSE)    
Max Wind Speed 7 mph    
Max Gust Speed -    
Visibility 10 miles    
Events      
Averages and records for this station are not official NWS values.
T = Trace of Precipitation, MM = Missing Value Source: NWS Daily Summary

Daily Weather History Graph

Daily Weather History Graph

Search for Another Location

Airport:

Trip Planner

Search our weather history database for the weather conditions in past years. The results will help you decide how hot, cold, wet, or windy it might be!

Date:

Astronomy

Oct. 03, 2013 Rise Set
Actual Time 7:10 AM CDT 6:55 PM CDT
Civil Twilight 6:45 AM CDT 7:20 PM CDT
Nautical Twilight 6:16 AM CDT 7:49 PM CDT
Astronomical Twilight 5:47 AM CDT 8:18 PM CDT
Moon 5:46 AM CDT (10/3) 6:03 PM CDT (10/3)
Length of Visible Light 12h 34m
Length of Day
11h 44m
Waning Crescent, 2% of the Moon is Illuminated
Oct 3
Waning Crescent
Oct 4
New
Oct 11
First Quarter
Oct 18
Full
Oct 26
Last Quarter

Hourly Weather History & Observations

Time (CDT) Temp. Heat Index Dew Point Humidity Pressure Visibility Wind Dir Wind Speed Gust Speed Precip Events Conditions
12:53 AM 70.0 °F - 68.0 °F 93% 29.94 in 4.0 mi Calm Calm - N/A   Scattered Clouds
1:53 AM 70.0 °F - 69.1 °F 97% 29.93 in 7.0 mi Variable 3.5 mph - N/A   Partly Cloudy
2:53 AM 73.0 °F - 68.0 °F 84% 29.91 in 10.0 mi SE 3.5 mph - N/A   Mostly Cloudy
3:44 AM 73.9 °F - 69.1 °F 85% 29.94 in 10.0 mi Calm Calm - N/A   Overcast
3:53 AM 73.0 °F - 69.1 °F 87% 29.91 in 10.0 mi Calm Calm - N/A   Overcast
4:53 AM 73.9 °F - 69.1 °F 85% 29.91 in 10.0 mi Variable 5.8 mph - N/A   Overcast
5:08 AM 73.0 °F - 69.1 °F 87% 29.94 in 10.0 mi South 4.6 mph - N/A   Overcast
5:53 AM 73.0 °F - 69.1 °F 87% 29.91 in 10.0 mi Variable 3.5 mph - N/A   Overcast
6:36 AM 73.0 °F - 69.1 °F 87% 29.96 in 10.0 mi Variable 4.6 mph - N/A   Overcast
6:53 AM 73.0 °F - 69.1 °F 87% 29.93 in 10.0 mi Variable 3.5 mph - N/A   Overcast
7:10 AM 73.0 °F - 69.1 °F 87% 29.96 in 10.0 mi North - - N/A   Overcast
7:53 AM 73.0 °F - 69.1 °F 87% 29.94 in 7.0 mi Calm Calm - N/A   Overcast
8:53 AM 73.9 °F - 69.1 °F 85% 29.95 in 10.0 mi Variable 3.5 mph - N/A   Partly Cloudy
9:25 AM 75.0 °F - 69.1 °F 82% 29.98 in 10.0 mi Variable 4.6 mph - N/A   Overcast
9:53 AM 75.0 °F - 69.1 °F 82% 29.96 in 10.0 mi Calm Calm - N/A   Overcast
10:42 AM 78.1 °F - 69.1 °F 74% 29.98 in 10.0 mi Variable 4.6 mph - N/A   Scattered Clouds
10:53 AM 77.0 °F - 69.1 °F 76% 29.95 in 10.0 mi Variable 4.6 mph - N/A   Scattered Clouds
11:53 AM 79.0 °F - 68.0 °F 69% 29.95 in 10.0 mi Variable 5.8 mph - N/A   Mostly Cloudy
12:16 PM 79.0 °F - 69.1 °F 72% 29.98 in 10.0 mi Variable 3.5 mph - N/A   Mostly Cloudy
12:25 PM 79.0 °F - 69.1 °F 72% 29.98 in 10.0 mi Variable 4.6 mph - N/A   Scattered Clouds
12:53 PM 80.1 °F 82.7 °F 68.0 °F 67% 29.94 in 10.0 mi Variable 4.6 mph - N/A   Mostly Cloudy
1:53 PM 81.0 °F 83.3 °F 66.9 °F 62% 29.91 in 10.0 mi Variable 3.5 mph - N/A   Clear
2:53 PM 82.9 °F 85.4 °F 66.9 °F 58% 29.88 in 10.0 mi Variable 5.8 mph - N/A   Partly Cloudy
3:53 PM 82.9 °F 85.4 °F 66.9 °F 58% 29.87 in 10.0 mi Variable 5.8 mph - N/A   Clear
4:53 PM 82.9 °F 85.4 °F 66.9 °F 58% 29.86 in 10.0 mi Variable 4.6 mph - N/A   Partly Cloudy
5:53 PM 82.0 °F 84.9 °F 68.0 °F 62% 29.86 in 10.0 mi Calm Calm - N/A   Clear
6:53 PM 78.1 °F - 68.0 °F 71% 29.87 in 10.0 mi Calm Calm - N/A   Clear
7:53 PM 73.9 °F - 69.1 °F 85% 29.87 in 10.0 mi Calm Calm - N/A   Clear
8:53 PM 77.0 °F - 70.0 °F 79% 29.88 in 10.0 mi Variable 3.5 mph - N/A   Clear
9:53 PM 75.9 °F - 70.0 °F 82% 29.90 in 10.0 mi SSE 6.9 mph - N/A   Clear
11:53 PM 73.0 °F - 69.1 °F 87% 29.91 in 10.0 mi Calm Calm - N/A   Clear